Total_Precipitation_Accumulation
1.48 1.40 1.31 1.20 1.15 1.17 1.27 1.44 1.68 1.62 1.29 1.04 0.99 0.98 0.99 0.97 1.05 0.97 0.86 1.04 1.10 1.11 1.14 1.17 1.14 1.13 1.22 1.36 1.52 1.77 1.99 2.06 2.01 2.05 2.12 2.14 2.22 2.38
1.39 1.35 1.29 1.21 1.19 1.20 1.26 1.34 1.48 1.60 1.45 1.08 0.93 0.89 0.91 0.91 1.00 0.89 0.84 1.03 1.04 1.04 1.02 1.01 1.02 1.05 1.12 1.24 1.33 1.48 1.73 1.89 1.88 1.87 1.94 2.02 2.12 2.24
1.31 1.30 1.26 1.20 1.20 1.18 1.21 1.26 1.31 1.39 1.38 1.08 0.90 0.87 0.91 0.90 0.94 0.90 0.85 0.82 0.81 0.91 0.90 0.89 0.89 0.94 1.04 1.13 1.20 1.28 1.46 1.61 1.74 1.81 1.90 2.00 2.05 2.07
1.22 1.25 1.25 1.26 1.30 1.31 1.31 1.30 1.27 1.25 1.25 1.14 0.93 0.84 0.80 0.76 0.76 0.80 0.82 0.81 0.75 0.86 0.86 0.83 0.86 0.90 0.98 1.01 1.05 1.12 1.22 1.31 1.44 1.56 1.64 1.76 1.88 1.98
1.09 1.16 1.19 1.24 1.32 1.33 1.32 1.27 1.22 1.17 1.15 1.15 1.00 0.87 0.83 0.78 0.76 0.76 0.77 0.77 0.72 0.79 0.83 0.81 0.83 0.85 0.89 0.97 1.02 1.01 1.04 1.10 1.18 1.29 1.40 1.48 1.58 1.72
1.04 1.07 1.09 1.11 1.12 1.11 1.11 1.09 1.10 1.11 1.12 1.13 1.07 0.95 0.89 0.84 0.85 0.89 0.85 0.75 0.72 0.67 0.71 0.71 0.73 0.74 0.75 0.81 0.88 0.91 0.92 0.99 1.09 1.19 1.33 1.40 1.43 1.55
1.09 1.06 1.01 1.00 0.95 0.94 0.93 0.93 0.94 1.02 1.11 1.16 1.10 0.99 0.87 0.84 0.83 0.80 0.84 0.81 0.76 0.67 0.64 0.61 0.61 0.59 0.61 0.68 0.78 0.89 0.98 1.10 1.24 1.34 1.46 1.57 1.64 1.71
0.97 0.93 0.90 0.90 0.87 0.90 0.91 0.90 0.96 1.07 1.18 1.17 1.05 0.88 0.71 0.66 0.72 0.82 0.94 0.99 0.90 0.66 0.64 0.67 0.66 0.66 0.61 0.64 0.80 0.92 1.04 1.17 1.32 1.40 1.47 1.53 1.62 1.73
0.88 0.81 0.76 0.71 0.73 0.69 0.76 0.84 0.86 0.93 0.99 0.98 0.91 0.75 0.68 0.67 0.84 1.02 1.01 0.98 0.80 0.60 0.66 0.73 0.69 0.72 0.68 0.73 0.88 0.91 1.04 1.17 1.32 1.40 1.48 1.52 1.56 1.66
0.74 0.69 0.63 0.62 0.62 0.66 0.73 0.79 0.70 0.66 0.67 0.65 0.67 0.71 0.72 0.72 0.83 1.00 1.02 0.99 0.84 0.71 0.70 0.79 0.69 0.70 0.68 0.73 0.87 0.86 0.91 1.05 1.22 1.36 1.48 1.51 1.54 1.61
0.63 0.64 0.66 0.60 0.67 0.81 0.83 0.81 0.68 0.56 0.59 0.66 0.71 0.72 0.76 0.76 0.78 0.99 1.16 1.23 1.06 0.78 0.67 0.70 0.63 0.64 0.70 0.75 0.83 0.91 0.91 0.99 1.14 1.26 1.34 1.44 1.54 1.60
0.57 0.61 0.69 0.67 0.75 0.86 0.78 0.75 0.68 0.58 0.56 0.56 0.55 0.55 0.55 0.59 0.71 0.84 1.22 1.55 1.28 0.93 0.62 0.74 0.76 0.82 1.02 0.77 0.76 0.83 0.88 0.99 1.11 1.17 1.20 1.30 1.41 1.42
0.55 0.54 0.57 0.75 0.84 0.83 0.75 0.63 0.67 0.72 0.62 0.53 0.51 0.50 0.49 0.50 0.54 0.59 0.83 1.44 1.68 1.18 0.63 1.07 1.24 0.96 1.13 0.88 0.74 0.82 0.95 1.11 1.20 1.21 1.22 1.25 1.31 1.40
0.51 0.47 0.53 0.73 0.73 0.68 0.62 0.66 0.78 0.75 0.62 0.60 0.58 0.56 0.53 0.49 0.49 0.52 0.59 0.77 1.09 1.18 0.85 1.27 1.74 1.32 1.40 1.16 0.89 0.90 0.98 1.21 1.48 1.54 1.48 1.47 1.40 1.39
0.58 0.65 0.68 0.65 0.58 0.55 0.59 0.64 0.65 0.61 0.67 0.76 0.70 0.59 0.54 0.53 0.54 0.58 0.60 0.65 0.73 0.77 0.82 0.98 1.38 1.45 1.62 1.58 1.23 1.04 1.16 1.30 1.62 1.90 1.80 1.59 1.40 1.34
0.69 0.72 0.66 0.57 0.52 0.52 0.56 0.57 0.55 0.58 0.70 0.79 0.74 0.62 0.57 0.60 0.65 0.73 0.82 0.84 0.93 0.85 0.81 0.87 1.05 1.40 1.54 1.31 1.38 1.29 1.32 1.68 1.87 2.05 1.93 1.68 1.45 1.30
0.76 0.62 0.54 0.51 0.50 0.48 0.47 0.48 0.52 0.59 0.66 0.68 0.73 0.72 0.66 0.66 0.67 0.78 0.99 1.11 1.15 0.99 0.89 0.83 0.85 0.99 1.19 1.30 1.35 1.26 1.36 1.60 1.83 1.99 1.81 1.66 1.58 1.45
0.72 0.60 0.56 0.51 0.49 0.46 0.45 0.48 0.50 0.56 0.64 0.74 0.78 0.78 0.79 0.79 0.78 0.80 0.99 1.18 1.19 1.04 0.95 0.86 0.88 0.97 1.00 1.02 1.22 1.40 1.44 1.61 1.72 1.67 1.41 1.44 1.54 1.41
0.62 0.59 0.57 0.54 0.52 0.50 0.51 0.53 0.54 0.53 0.65 0.80 0.88 0.89 0.90 0.87 0.89 0.95 1.03 1.11 1.08 0.96 0.84 0.77 0.91 1.26 1.31 0.96 0.81 1.13 1.50 1.59 1.47 1.39 1.23 1.25 1.49 1.41
0.51 0.54 0.54 0.54 0.56 0.59 0.61 0.64 0.65 0.65 0.71 0.81 0.86 0.90 0.98 1.04 1.02 1.01 1.05 1.10 1.05 0.87 0.69 0.59 0.71 1.16 1.62 1.44 1.14 1.04 1.17 1.39 1.47 1.49 1.27 1.13 1.22 1.23
0.51 0.51 0.50 0.53 0.59 0.64 0.67 0.71 0.75 0.80 0.84 0.96 0.97 0.98 1.04 1.15 1.09 1.00 1.00 0.95 0.89 0.81 0.71 0.55 0.54 0.78 1.14 1.29 1.15 0.91 1.00 1.13 1.32 1.67 1.61 1.44 1.23 1.06
0.53 0.53 0.53 0.54 0.61 0.67 0.70 0.74 0.80 0.82 0.88 0.97 1.02 1.04 1.09 1.17 1.15 0.99 0.89 0.88 0.81 0.75 0.70 0.57 0.52 0.63 0.87 1.16 1.02 0.79 0.79 0.84 0.88 0.97 1.23 1.59 1.96 2.02
0.57 0.57 0.57 0.60 0.65 0.70 0.74 0.76 0.81 0.84 0.90 1.02 1.07 1.06 1.07 1.04 0.93 0.90 0.87 0.87 0.88 0.82 0.76 0.71 0.64 0.66 0.73 0.83 0.88 0.77 0.69 0.67 0.67 0.75 0.95 1.02 1.16 1.42